Location: Fort Worth, Tx
(32.7431°N, 97.3695°W)
Time: 12:45:08
(UTC-05:00)

Vanguard 1 - All Passes

Search period start: 30 January 2023 00:00
Search period end: 09 February 2023 00:00
Orbit: 649 x 3831 km, 34.2° (Epoch: 29 January)

Date Brightness Start Highest point End Pass type
(mag) Time Alt. Az. Time Alt. Az. Time Alt. Az.
30 Jan - 04:45:30 10° S 04:50:14 22° SE 04:57:01 10° E visible
30 Jan - 07:02:13 10° WSW 07:09:59 75° SSE 07:25:01 10° ENE visible
30 Jan - 09:22:06 10° W 09:33:25 84° N 09:54:15 10° E daylight
30 Jan - 11:43:22 10° WNW 11:59:13 78° SSW 12:22:53 10° ESE daylight
30 Jan - 14:06:54 10° WNW 14:25:18 45° SW 14:46:13 10° SSE daylight
30 Jan - 16:40:16 10° WSW 16:49:44 14° SW 16:59:00 10° SSW daylight
31 Jan - 05:04:50 10° SSW 05:10:14 32° SE 05:18:55 10° E visible
31 Jan - 07:22:41 10° WSW 07:30:45 85° SSE 07:46:30 10° ENE visible
31 Jan - 09:42:49 10° W 09:54:36 86° N 10:15:57 10° E daylight
31 Jan - 12:04:13 10° WNW 12:20:22 70° SSW 12:43:47 10° SE daylight
31 Jan - 14:28:35 10° W 14:46:06 36° SW 15:05:34 10° SSE daylight
01 Feb - 05:24:37 10° SW 05:30:26 44° SE 05:40:26 10° ENE visible
01 Feb - 07:43:14 10° W 07:51:38 88° N 08:08:04 10° E visible
01 Feb - 10:03:31 10° W 10:15:47 90° S 10:37:34 10° ESE daylight
01 Feb - 12:25:08 10° WNW 12:41:27 61° SSW 13:04:23 10° SE daylight
01 Feb - 14:50:49 10° W 15:06:52 28° SW 15:24:20 10° S daylight
02 Feb - 05:44:42 10° SW 05:50:47 59° SSE 06:01:48 10° ENE visible
02 Feb - 08:03:50 10° W 08:12:37 84° N 08:29:41 10° E daylight
02 Feb - 10:24:13 10° WNW 10:36:55 84° SSW 10:59:01 10° ESE daylight
02 Feb - 12:46:10 10° WNW 13:02:28 52° SSW 13:24:37 10° SE daylight
02 Feb - 15:14:00 10° W 15:27:38 21° SW 15:42:08 10° S daylight
03 Feb - 03:48:31 10° S 03:52:00 17° SE 03:56:29 10° E visible
03 Feb - 06:05:01 10° WSW 06:11:19 74° SSE 06:23:08 10° ENE visible
03 Feb - 08:24:28 10° W 08:33:38 83° N 08:51:22 10° E daylight
03 Feb - 10:44:56 10° WNW 10:58:01 76° SSW 11:20:15 10° ESE daylight
03 Feb - 13:07:25 10° W 13:23:26 43° SW 13:44:27 10° SSE daylight
03 Feb - 15:39:25 10° WSW 15:48:29 14° SW 15:57:52 10° SSW daylight
04 Feb - 04:07:42 10° SSW 04:12:04 27° SE 04:18:22 10° E visible
04 Feb - 06:25:27 10° WSW 06:32:00 86° SSE 06:44:28 10° ENE visible
04 Feb - 08:45:07 10° W 08:54:40 86° N 09:13:02 10° E daylight
04 Feb - 11:05:41 10° WNW 11:19:05 67° SSW 11:41:12 10° SE daylight
04 Feb - 13:29:01 10° W 13:44:23 34° SW 14:03:47 10° SSE daylight
05 Feb - 04:27:28 10° SW 04:32:17 40° SE 04:39:46 10° E visible
05 Feb - 06:45:58 10° W 06:52:47 86° N 07:05:53 10° E visible
05 Feb - 09:05:44 10° W 09:15:41 89° S 09:34:37 10° ESE daylight
05 Feb - 11:26:31 10° WNW 11:40:07 58° SSW 12:01:50 10° SE daylight
05 Feb - 13:51:11 10° W 14:05:19 26° SW 14:22:27 10° S daylight
06 Feb - 04:47:34 10° SW 04:52:38 56° SSE 05:01:00 10° ENE visible
06 Feb - 07:06:33 10° W 07:13:40 82° N 07:27:22 10° E visible
06 Feb - 09:26:22 10° WNW 09:36:40 82° SSW 09:56:04 10° ESE daylight
06 Feb - 11:47:30 10° W 12:01:08 48° SSW 12:22:04 10° SE daylight
06 Feb - 14:14:23 10° W 14:26:19 19° SW 14:40:05 10° S daylight
07 Feb - 02:51:23 10° S 02:53:57 15° SE 02:56:54 10° ESE night (unlit)
07 Feb - 05:07:52 10° WSW 05:13:08 73° SSE 05:22:10 10° ENE visible
07 Feb - 07:27:08 10° W 07:34:32 82° N 07:48:55 10° E visible
07 Feb - 09:47:00 10° WNW 09:57:38 73° SSW 10:17:17 10° ESE daylight
07 Feb - 12:08:41 10° W 12:22:10 39° SSW 12:41:53 10° SSE daylight
07 Feb - 14:40:06 10° WSW 14:47:23 13° SW 14:55:15 10° SSW daylight
08 Feb - 03:10:27 10° SSW 03:14:08 24° SE 03:18:46 10° E visible
08 Feb - 05:28:19 10° WSW 05:33:46 87° SSE 05:43:20 10° E visible
08 Feb - 07:47:43 10° W 07:55:26 86° N 08:10:28 10° E visible
08 Feb - 10:07:42 10° WNW 10:18:36 63° SSW 10:38:14 10° SE daylight
08 Feb - 12:30:15 10° W 12:43:11 31° SW 13:01:09 10° SSE daylight
